Location: Dumpton Point
(51.3500°N, 1.4433°E)
Time: 23:01:24
(UTC+00:00)

Vanguard 1 - Pass Details

Date: 03 October 2022
Orbit: 650 x 3831 km, 34.2° (Epoch: 03 December)

Event Time Altitude Azimuth Distance (km) Brightness Sun altitude
Rises 18:27:30 0° 263° (W) 5,201 15.6 -10.2°
Reaches altitude 10° 18:33:52 10° 238° (WSW) 3,438 13.7 -11.2°
Maximum altitude 18:36:56 12° 216° (SW) 2,894 12.8 -11.6°
Drops below altitude 10° 18:39:31 10° 193° (SSW) 2,786 12.4 -12.0°
Sets 18:43:27 0° 162° (SSE) 3,340 12.5 -12.6°
